Regional Weather Roundup
Issued by NWS

Home | Current Version | Previous Version | Graphics & Text | Print | Product List | Glossary Off
Versions: 1 2 3 4 5 6 7 8 9 10 11 12 13 14 15 16 17 18 19 20 21 22 23 24 25 26 27 28 29 30 31 32 33 34 35 36 37 38 39 40 41 42 43 44 45 46 47 48 49 50

000
ASUS43 KTOP 240508
RWRKS

WEATHER ROUNDUP FOR KANSAS
NATIONAL WEATHER SERVICE GOODLAND KS
1100 PM CST TUE JAN 23 2018

NOTE:  "FAIR" INDICATES FEW OR NO CLOUDS BELOW 12,000 FEET WITH NO
SIGNIFICANT WEATHER AND/OR OBSTRUCTIONS TO VISIBILITY.

KSZ001>006-013>018-027>032-041>047-240600-
NORTHWEST KANSAS

CITY           SKY/WX    TMP DP  RH WIND       PRES   REMARKS
GOODLAND       CLEAR     19  13  77 W9        30.32R
HAYS           CLEAR     25  22  88 W9        30.33R
HILL CITY      CLEAR     25  22  88 W7        30.33R
RUSSELL        CLEAR     27  24  89 W6        30.31R
$$

KSZ061>065-074>080-084>089-240600-
SOUTHWEST KANSAS

CITY           SKY/WX    TMP DP  RH WIND       PRES   REMARKS
DODGE CITY     CLEAR     27  18  69 W12       30.34S WCI  17
ELKHART        CLEAR     33  19  56 NE6       30.36R
GARDEN CITY    CLEAR     22  15  75 NW12      30.34S WCI  10
GREAT BEND     CLEAR     27  22  81 NW9       30.33R
LIBERAL        CLEAR     20  13  74 NW9       30.37R
PRATT          CLEAR     24  18  77 W9        30.34R
$$

KSZ066>073-081>083-090>101-240600-
SOUTHEAST KANSAS

CITY           SKY/WX    TMP DP  RH WIND       PRES   REMARKS
CHANUTE        CLEAR     25  20  81 W5        30.30R
COFFEYVILLE    CLEAR     27  21  78 CALM      30.32R
HUTCHINSON     CLEAR     25  21  85 NW6       30.32R
MEDICINE LODGE   N/A     25  18  74 N5        30.35R
NEWTON         CLEAR     28  24  85 W7        30.32R
PARSONS        CLEAR     22  20  92 CALM      30.32R
WICHITA INTL   CLEAR     29  22  75 W5        30.32R
WICHITA JABRA  CLEAR     32  25  75 NW9       30.32R
WICHITA MCCONL CLEAR     35  23  63 NW8       30.32R
WINFIELD       CLEAR     31  19  61 CALM      30.34R
$$

KSZ007>012-019>026-033>040-048>060-102>105-240600-
NORTHEAST KANSAS

CITY           SKY/WX    TMP DP  RH WIND       PRES   REMARKS
CONCORDIA      CLEAR     28  26  92 W8        30.28R
EMPORIA        CLEAR     29  23  78 W9        30.29R
LAWRENCE       MOCLDY    25  24  96 CALM      30.27R
MANHATTAN      CLEAR     25  22  88 SW3       30.29R
MARYSVILLE     CLEAR     32  28  86 W6        30.26R
OLATHE IND     MOCLDY    26  24  92 SW3       30.27R
OLATHE EXE     MOCLDY    24  23  96 SW3       30.26R
SALINA         CLEAR     35  28  75 W12       30.31R WCI  27
TOPEKA BILLARD CLEAR     25  25 100 W3        30.28R FOG
TOPEKA FORBES  CLEAR     29  25  85 W7        30.26S
$$



USA.gov is the U.S. government's official web portal to all federal, state and local government web resources and services.